FW2651 Weather Reports


Display with metric or nautical units.
time (UTC)temp
F
wind
direction
speed
MPH
gust
MPH
rain 1hr
in
rain 24hr
in
rain mn
in
humidity
%
barometer
mb
20260504001509 59 360 0.0 3.0 0.00 0.02 0.00 44 1015.0
20260504000009 60 360 0.0 2.0 0.00 0.02 0.00 42 1015.1
20260503234508 60 360 0.0 3.0 0.00 0.02 0.00 41 1014.8
20260503233006 60 254 1.0 8.0 0.00 0.02 0.00 40 1014.9
20260503231505 61 360 2.0 11.0 0.00 0.02 0.00 39 1015.1
20260503230004 61 276 1.0 7.0 0.00 0.02 0.00 40 1015.3
20260503224502 62 360 0.0 2.0 0.00 0.02 0.00 39 1015.5
20260503223001 62 360 0.0 10.0 0.00 0.02 0.00 39 1015.6
20260503221603 62 360 0.0 7.0 0.00 0.02 0.00 38 1015.6
20260503220059 62 224 0.0 7.0 0.00 0.02 0.00 38 1015.9
20260503214559 62 360 0.0 7.0 0.00 0.02 0.00 36 1016.0
20260503213057 62 360 2.0 9.0 0.00 0.02 0.00 35 1016.0
20260503211556 62 360 2.0 11.0 0.00 0.02 0.00 37 1016.1
20260503210054 62 257 0.0 10.0 0.00 0.02 0.00 32 1016.3
20260503204555 62 275 1.0 10.0 0.00 0.02 0.00 30 1016.4
20260503203051 62 360 0.0 11.0 0.00 0.02 0.00 33 1016.5
20260503201551 62 360 1.0 13.0 0.00 0.02 0.00 35 1016.7
20260503200049 62 360 0.0 12.0 0.00 0.02 0.00 38 1016.9
20260503194553 60 360 0.0 11.0 0.00 0.02 0.00 41 1017.1
20260503193047 61 360 1.0 13.0 0.00 0.02 0.00 39 1017.5
20260503191546 61 360 0.0 8.0 0.00 0.02 0.00 39 1017.6
20260503190044 61 360 0.0 9.0 0.00 0.02 0.00 41 1017.8
20260503184600 60 355 0.0 7.0 0.00 0.02 0.00 41 1017.9
20260503183044 59 200 0.0 9.0 0.00 0.02 0.00 42 1018.0
20260503181540 59 360 0.0 4.0 0.00 0.02 0.00 44 1018.1
20260503180039 57 360 0.0 9.0 0.00 0.02 0.00 45 1018.4
20260503174534 57 212 0.0 11.0 0.00 0.02 0.00 47 1018.5
20260503173035 56 360 0.0 10.0 0.00 0.02 0.00 48 1018.8
20260503171537 55 360 1.0 8.0 0.00 0.02 0.00 47 1019.1
20260503081508 41 28 0.0 0.0 0.00 0.02 0.00 91 1017.5
20260503071505 41 28 0.0 0.0 0.00 0.02 0.00 90 1016.9
20260503054601 42 28 0.0 0.0 0.00 0.02 0.00 90 1016.8
20260503053053 43 28 0.0 0.0 0.01 0.02 0.00 89 1016.8
20260503051550 43 28 0.0 1.0 0.01 0.02 0.00 89 1016.7
20260503050050 43 28 0.0 0.0 0.01 0.02 0.00 89 1016.5
20260503044553 44 28 0.0 0.0 0.01 0.02 0.02 89 1016.5
20260503043050 44 28 0.0 1.0 0.00 0.01 0.01 90 1016.3
20260503041547 44 28 0.0 0.0 0.00 0.01 0.01 90 1016.4
20260503040045 44 28 0.0 0.0 0.00 0.01 0.01 89 1016.2
20260503034547 44 28 0.0 0.0 0.00 0.01 0.01 89 1016.2
20260503033043 44 28 0.0 0.0 0.00 0.01 0.01 89 1016.2
20260503031544 44 28 0.0 3.0 0.00 0.01 0.01 88 1016.2
20260503030041 44 26 0.0 0.0 0.00 0.01 0.01 88 1016.2
20260503024540 45 26 0.0 0.0 0.00 0.01 0.01 87 1015.8
20260503023043 45 26 0.0 0.0 0.00 0.01 0.01 86 1015.9
20260503021544 46 17 0.0 0.0 0.00 0.01 0.01 85 1015.8
20260503020042 46 11 0.0 1.0 0.01 0.01 0.01 84 1016.0
20260503014538 47 9 0.0 1.0 0.01 0.01 0.01 82 1015.9
20260503013038 47 278 0.0 6.0 0.01 0.01 0.01 81 1016.0
20260503011543 48 345 0.0 3.0 0.01 0.01 0.01 78 1015.6
20260503010036 50 360 0.0 7.0 0.00 0.00 0.00 72 1015.4
20260503004527 51 30 1.0 13.0 0.00 0.00 0.00 62 1014.7
20260503003025 53 360 0.0 0.0 0.00 0.00 0.00 58 1014.0